When you browse on this site, cookies collect data to enhance your experience and personalize the content and advertising you see.
Visit our Privacy Policy to learn more. By continuing to use the site, you agree to this use of cookies and data.
  • In Lithuania
  • List of Countries
  • For 7 days
  • Water Temperature
  • Weather Map
  • Weather Widgets
  • user-avatar
    Login

    Hourly Weather Dahab

    Today, 1 April, Wednesday

    Time Temperature Precipitation Wind Pressure Humidity
    00:00 +22°C° 0 mm 1 mps 711 mmHg 36%
    01:00 +21°C° 0 mm 1 mps 711 mmHg 39%
    02:00 +21°C° 0 mm 1 mps 710 mmHg 42%
    03:00 +19°C° 0 mm 2 mps 710 mmHg 40%
    04:00 +18°C° 0 mm 2 mps 711 mmHg 38%
    05:00 +18°C° 0 mm 2 mps 711 mmHg 36%
    06:00 +19°C° 0 mm 3 mps 711 mmHg 34%
    07:00 +20°C° 0 mm 3 mps 712 mmHg 31%
    08:00 +20°C° 0 mm 3 mps 712 mmHg 29%
    09:00 +21°C° 0 mm 4 mps 712 mmHg 28%
    10:00 +22°C° 0 mm 4 mps 713 mmHg 27%
    11:00 +23°C° 0 mm 4 mps 713 mmHg 26%
    12:00 +25°C° 0 mm 4 mps 712 mmHg 26%
    13:00 +25°C° 0 mm 4 mps 712 mmHg 26%
    14:00 +26°C° 0 mm 4 mps 711 mmHg 25%
    15:00 +25°C° 0 mm 3 mps 711 mmHg 26%
    16:00 +25°C° 0 mm 3 mps 711 mmHg 27%
    17:00 +24°C° 0 mm 2 mps 711 mmHg 27%
    18:00 +24°C° 0 mm 2 mps 712 mmHg 28%
    19:00 +23°C° 0 mm 2 mps 712 mmHg 29%
    20:00 +21°C° 0 mm 2 mps 712 mmHg 31%
    21:00 +21°C° 0 mm 2 mps 712 mmHg 34%
    22:00 +20°C° 0 mm 3 mps 712 mmHg 37%
    23:00 +19°C° 0 mm 3 mps 712 mmHg 41%

    Tomorrow, 2 April, Thursday

    Time Temperature Precipitation Wind Pressure Humidity
    00:00 +19°C° 0 mm 3 mps 712 mmHg 44%
    01:00 +18°C° 0 mm 3 mps 712 mmHg 47%
    02:00 +18°C° 0 mm 3 mps 712 mmHg 51%
    03:00 +17°C° 0 mm 2 mps 712 mmHg 51%
    04:00 +17°C° 0 mm 2 mps 712 mmHg 51%
    05:00 +16°C° 0 mm 2 mps 712 mmHg 51%
    06:00 +17°C° 0 mm 2 mps 712 mmHg 47%
    07:00 +18°C° 0 mm 2 mps 713 mmHg 43%
    08:00 +19°C° 0 mm 2 mps 713 mmHg 39%
    09:00 +21°C° 0 mm 3 mps 713 mmHg 36%
    10:00 +22°C° 0 mm 3 mps 713 mmHg 33%
    11:00 +24°C° 0 mm 3 mps 713 mmHg 31%
    12:00 +24°C° 0 mm 3 mps 713 mmHg 31%
    13:00 +24°C° 0 mm 3 mps 712 mmHg 32%
    14:00 +25°C° 0 mm 3 mps 712 mmHg 33%
    15:00 +25°C° 0 mm 2 mps 712 mmHg 34%
    16:00 +24°C° 0 mm 2 mps 712 mmHg 35%
    17:00 +24°C° 0 mm 1 mps 712 mmHg 36%
    18:00 +24°C° 0 mm 1 mps 712 mmHg 37%
    19:00 +23°C° 0 mm 1 mps 712 mmHg 38%
    20:00 +23°C° 0 mm 1 mps 713 mmHg 39%
    21:00 +21°C° 0 mm 2 mps 713 mmHg 40%
    22:00 +21°C° 0 mm 2 mps 713 mmHg 40%
    23:00 +20°C° 0 mm 2 mps 713 mmHg 41%

    Day after tomorrow, 3 April, Friday

    Time Temperature Precipitation Wind Pressure Humidity
    00:00 +20°C° 0 mm 2 mps 713 mmHg 43%
    01:00 +19°C° 0 mm 2 mps 713 mmHg 44%
    02:00 +18°C° 0 mm 2 mps 713 mmHg 46%
    03:00 +18°C° 0 mm 2 mps 713 mmHg 46%
    04:00 +18°C° 0 mm 2 mps 713 mmHg 46%
    05:00 +17°C° 0 mm 3 mps 713 mmHg 46%
    06:00 +19°C° 0 mm 3 mps 713 mmHg 41%
    07:00 +20°C° 0 mm 3 mps 714 mmHg 36%
    08:00 +21°C° 0 mm 3 mps 714 mmHg 31%
    09:00 +22°C° 0 mm 3 mps 714 mmHg 28%
    10:00 +24°C° 0 mm 3 mps 714 mmHg 25%
    11:00 +26°C° 0 mm 3 mps 714 mmHg 23%
    12:00 +26°C° 0 mm 3 mps 714 mmHg 23%
    13:00 +26°C° 0 mm 3 mps 713 mmHg 23%
    14:00 +27°C° 0 mm 3 mps 713 mmHg 22%
    15:00 +27°C° 0 mm 3 mps 713 mmHg 22%
    16:00 +26°C° 0 mm 2 mps 713 mmHg 22%
    17:00 +26°C° 0 mm 2 mps 713 mmHg 22%
    18:00 +26°C° 0 mm 2 mps 713 mmHg 23%
    19:00 +25°C° 0 mm 2 mps 713 mmHg 25%
    20:00 +24°C° 0 mm 2 mps 714 mmHg 26%
    21:00 +24°C° 0 mm 2 mps 714 mmHg 26%
    22:00 +24°C° 0 mm 3 mps 714 mmHg 26%
    23:00 +22°C° 0 mm 3 mps 714 mmHg 27%

    4 April, Saturday

    Time Temperature Precipitation Wind Pressure Humidity
    00:00 +22°C° 0 mm 3 mps 714 mmHg 26%
    01:00 +21°C° 0 mm 3 mps 713 mmHg 26%
    02:00 +21°C° 0 mm 3 mps 713 mmHg 25%
    03:00 +21°C° 0 mm 3 mps 713 mmHg 25%
    04:00 +20°C° 0 mm 2 mps 713 mmHg 25%
    05:00 +20°C° 0 mm 2 mps 713 mmHg 25%
    06:00 +21°C° 0 mm 3 mps 714 mmHg 23%
    07:00 +24°C° 0 mm 3 mps 714 mmHg 21%
    08:00 +25°C° 0 mm 3 mps 714 mmHg 20%
    09:00 +27°C° 0 mm 3 mps 714 mmHg 19%
    10:00 +28°C° 0 mm 3 mps 714 mmHg 18%
    11:00 +29°C° 0 mm 3 mps 714 mmHg 17%
    12:00 +29°C° 0 mm 3 mps 714 mmHg 16%
    13:00 +30°C° 0 mm 3 mps 714 mmHg 15%
    14:00 +30°C° 0 mm 3 mps 713 mmHg 15%
    15:00 +30°C° 0 mm 2 mps 713 mmHg 15%
    16:00 +30°C° 0 mm 2 mps 713 mmHg 15%
    17:00 +30°C° 0 mm 1 mps 713 mmHg 15%
    18:00 +29°C° 0 mm 1 mps 713 mmHg 15%
    19:00 +28°C° 0 mm 1 mps 713 mmHg 16%
    20:00 +27°C° 0 mm 2 mps 713 mmHg 17%
    21:00 +27°C° 0 mm 2 mps 713 mmHg 18%
    22:00 +27°C° 0 mm 2 mps 714 mmHg 18%
    23:00 +26°C° 0 mm 1 mps 714 mmHg 19%

    5 April, Sunday

    Time Temperature Precipitation Wind Pressure Humidity
    00:00 +26°C° 0 mm 2 mps 713 mmHg 19%
    01:00 +25°C° 0 mm 2 mps 713 mmHg 20%
    02:00 +25°C° 0 mm 2 mps 713 mmHg 20%
    03:00 +25°C° 0 mm 2 mps 713 mmHg 21%
    04:00 +24°C° 0 mm 2 mps 713 mmHg 22%
    05:00 +24°C° 0 mm 2 mps 713 mmHg 23%
    06:00 +25°C° 0 mm 2 mps 713 mmHg 21%
    07:00 +27°C° 0 mm 2 mps 713 mmHg 20%
    08:00 +28°C° 0 mm 2 mps 713 mmHg 18%
    09:00 +29°C° 0 mm 2 mps 713 mmHg 16%
    10:00 +30°C° 0 mm 2 mps 713 mmHg 15%
    11:00 +32°C° 0 mm 2 mps 713 mmHg 14%
    12:00 +33°C° 0 mm 3 mps 713 mmHg 13%
    13:00 +34°C° 0 mm 3 mps 712 mmHg 12%
    14:00 +35°C° 0 mm 4 mps 712 mmHg 11%
    15:00 +34°C° 0 mm 3 mps 712 mmHg 11%
    16:00 +34°C° 0 mm 3 mps 712 mmHg 11%
    17:00 +34°C° 0 mm 3 mps 711 mmHg 11%
    18:00 +31°C° 0 mm 2 mps 712 mmHg 13%
    19:00 +30°C° 0 mm 1 mps 712 mmHg 15%
    20:00 +29°C° 0 mm 1 mps 712 mmHg 17%
    21:00 +28°C° 0 mm 1 mps 712 mmHg 17%
    22:00 +28°C° 0 mm 1 mps 711 mmHg 17%
    23:00 +27°C° 0 mm 1 mps 711 mmHg 16%

    6 April, Monday

    Time Temperature Precipitation Wind Pressure Humidity
    00:00 +27°C° 0 mm 1 mps 711 mmHg 16%
    01:00 +26°C° 0 mm 1 mps 711 mmHg 16%
    02:00 +26°C° 0 mm 1 mps 710 mmHg 15%
    03:00 +26°C° 0 mm 1 mps 710 mmHg 16%
    04:00 +25°C° 0 mm 1 mps 710 mmHg 16%
    05:00 +25°C° 0 mm 1 mps 710 mmHg 16%
    06:00 +26°C° 0 mm 2 mps 711 mmHg 14%
    07:00 +28°C° 0 mm 2 mps 712 mmHg 13%
    08:00 +30°C° 0 mm 2 mps 712 mmHg 12%
    09:00 +31°C° 0 mm 3 mps 713 mmHg 12%
    10:00 +33°C° 0 mm 4 mps 713 mmHg 12%
    11:00 +34°C° 0 mm 4 mps 713 mmHg 12%
    12:00 +34°C° 0 mm 4 mps 712 mmHg 13%
    13:00 +34°C° 0 mm 4 mps 712 mmHg 14%
    14:00 +34°C° 0 mm 4 mps 712 mmHg 15%
    15:00 +33°C° 0 mm 3 mps 711 mmHg 17%
    16:00 +33°C° 0 mm 3 mps 711 mmHg 19%
    17:00 +31°C° 0 mm 2 mps 711 mmHg 21%
    18:00 +30°C° 0 mm 2 mps 711 mmHg 23%
    19:00 +29°C° 0 mm 2 mps 712 mmHg 25%
    20:00 +28°C° 0 mm 1 mps 712 mmHg 26%
    21:00 +28°C° 0 mm 2 mps 712 mmHg 27%
    22:00 +27°C° 0 mm 2 mps 712 mmHg 29%
    23:00 +26°C° 0 mm 2 mps 712 mmHg 30%
    Show more